Weather History for Burlington, CO

Change the Weather History Date:

Friday, October 28, 2011

  Actual Average Record
Temperature  
Mean Temperature 40 °F 46 °F  
Max Temperature 56 °F 61 °F 84 °F (1943)
Min Temperature 23 °F 32 °F 9 °F (1925)
Degree Days  
Heating Degree Days 26    
Moisture  
Dew Point 20 °F    
Average Humidity 59    
Maximum Humidity 81    
Minimum Humidity 24    
Precipitation  
Precipitation 0.00 in 0.03 in 1.22 in (2000)
Month to date precipitation 0.78 1.08  
Year to date precipitation 15.88 16.37  
Sea Level Pressure  
Sea Level Pressure 30.26 in    
Wind  
Wind Speed 8 mph (West)    
Max Wind Speed 13 mph    
Max Gust Speed 22 mph    
Visibility 10 miles    
Events      
T = Trace of Precipitation, MM = Missing Value Source: NWS Daily Summary

Daily Weather History Graph

Daily Weather History Graph

Search for Another Location

Airport:

Trip Planner

Search our weather history database for the weather conditions in past years. The results will help you decide how hot, cold, wet, or windy it might be!

Date:

Astronomy

Oct. 28, 2011 Rise Set
Actual Time 7:12 AM MDT 5:52 PM MDT
Civil Twilight 6:44 AM MDT 6:20 PM MDT
Nautical Twilight 6:13 AM MDT 6:51 PM MDT
Astronomical Twilight 5:42 AM MDT 7:23 PM MDT
Moon 9:29 AM MDT (10/28) 7:19 PM MDT (10/28)
Length of Visible Light 11h 35m
Length of Day
10h 40m
Waxing Crescent, 5% of the Moon is Illuminated
Oct 28
Waxing Crescent
Nov 2
First Quarter
Nov 10
Full
Nov 18
Last Quarter
Nov 24
New

Hourly Weather History & Observations

Time (MDT) Temp. Windchill Dew Point Humidity Pressure Visibility Wind Dir Wind Speed Gust Speed Precip Events Conditions
12:00 AM 26.6 °F - 19.4 °F 74% 30.18 in 10.0 mi North - - N/A   Clear
12:08 AM 26.6 °F 19.1 °F 19.4 °F 74% 30.18 in 10.0 mi WSW 6.9 mph - N/A   Clear
12:53 AM 26.1 °F 17.6 °F 19.0 °F 75% 30.23 in 10.0 mi West 8.1 mph - N/A   Clear
2:53 AM 23.0 °F 13.9 °F 18.0 °F 81% 30.24 in 10.0 mi West 8.1 mph - N/A   Clear
3:53 AM 24.1 °F 14.4 °F 17.1 °F 75% 30.24 in 10.0 mi West 9.2 mph - N/A   Clear
4:53 AM 25.0 °F 15.5 °F 17.1 °F 72% 30.25 in 10.0 mi West 9.2 mph - N/A   Clear
5:53 AM 23.0 °F 13.9 °F 16.0 °F 74% 30.29 in 10.0 mi West 8.1 mph - N/A   Clear
6:53 AM 24.1 °F 14.4 °F 17.1 °F 75% 30.32 in 10.0 mi West 9.2 mph - N/A   Clear
7:53 AM 25.0 °F 16.3 °F 18.0 °F 75% 30.33 in 10.0 mi West 8.1 mph - N/A   Clear
8:53 AM 33.1 °F 27.7 °F 24.1 °F 70% 30.35 in 10.0 mi WNW 5.8 mph - N/A   Clear
9:53 AM 43.0 °F 40.3 °F 27.0 °F 53% 30.31 in 10.0 mi West 4.6 mph - N/A   Clear
11:53 AM 52.0 °F - 18.0 °F 26% 30.29 in 10.0 mi WNW 6.9 mph - N/A   Clear
12:53 PM 54.0 °F - 19.0 °F 25% 30.26 in 10.0 mi NNW 5.8 mph - N/A   Clear
1:53 PM 54.0 °F - 21.0 °F 28% 30.25 in 10.0 mi NNW 9.2 mph - N/A   Clear
2:53 PM 55.0 °F - 19.0 °F 24% 30.24 in 10.0 mi NW 12.7 mph 21.9 mph N/A   Clear
3:53 PM 53.1 °F - 19.9 °F 27% 30.25 in 10.0 mi NNW 10.4 mph - N/A   Clear
4:53 PM 51.1 °F - 21.0 °F 31% 30.26 in 10.0 mi North 9.2 mph - N/A   Clear
7:53 PM 33.1 °F - 23.0 °F 66% 30.30 in 10.0 mi Calm Calm - N/A   Clear
8:53 PM 30.9 °F 27.5 °F 21.9 °F 69% 30.26 in 10.0 mi West 3.5 mph - N/A   Clear
9:53 PM 28.0 °F 19.3 °F 21.9 °F 78% 30.23 in 10.0 mi WSW 9.2 mph - N/A   Clear
10:53 PM 28.9 °F 20.4 °F 21.0 °F 72% 30.19 in 10.0 mi SW 9.2 mph - N/A   Clear